Location: *
(35.2348°S, 91.3916°E)
Time: 20:18:37
(UTC+00:00)

BREEZE-M DEB (TANK) - Pass Details

Date: 23 October 2019
Orbit: 419 x 13248 km, 46.0° (Epoch: 14 November)

Event Time Altitude Azimuth Distance (km) Brightness Sun altitude
Rises 13:10:52 0° 336° (NNW) 2,912 6.5 -11.5°
Reaches altitude 10° 13:13:54 10° 359° (N) 1,607 5.0 -12.0°
Enters shadow 13:15:30 16° 32° (NNE) 1,203 4.1 -12.3°
